This demonstration page uses our WeatherBlox Daily Observations layout. Learn more.

Left ArrowRight Arrow

Hourly Observations for January 1, 2021

Temp ( °F °C ) Dew Point ( °F °C ) Humidity (%) Winds ( mph kmh ) Pressure ( in mb ) Visibility ( mi km ) Precip ( " mm )
6:30 am 06:30 Cloudy with Light Freezing Rain 32 0 28 -2 87 87 ENE 12 19 30.12 1020 4 6 N/A
6:48 am 06:48 Cloudy with Light Freezing Rain 32 0 28 -2 87 87 ENE 12 19 30.11 1019 3 5 N/A
7:47 am 07:47 Cloudy with Light Freezing Rain 32 0 30 -1 93 93 E 8 13 30.09 1019 5 8 N/A
8:01 am 08:01 Cloudy with Light Freezing Rain 32 0 30 -1 93 93 ENE 5 7 30.08 1018 1 2 N/A
8:55 am 08:55 Cloudy with Light Freezing Drizzle 32 0 30 -1 93 93 E 8 13 30.04 1017 3 5 N/A
9:15 am 09:15 Cloudy with Light Freezing Drizzle 32 0 30 -1 93 93 ENE 7 11 30.03 1017 2 4 N/A
9:45 am 09:45 Cloudy with Light Rain 32 0 30 -1 93 93 E 8 13 30.01 1016 3 5 N/A
10:24 am 10:24 Cloudy with Light Rain 32 0 30 -1 93 93 E 5 7 29.99 1015 2 3 N/A
10:45 am 10:45 Cloudy with Light Rain 32 0 32 0 100 100 E 5 7 29.96 1014 1 2 N/A
11:50 am 11:50 Cloudy with Mist and Fog 36 2 34 1 93 93 E 6 9 29.89 1012 6 10 N/A
12:49 pm 12:49 Cloudy 37 3 36 2 93 93 ESE 6 9 29.85 1011 7 11 N/A
1:40 pm 13:40 Cloudy 39 4 37 3 93 93 ESE 6 9 29.79 1009 10 16 N/A
2:55 pm 14:55 Cloudy 41 5 39 4 93 93 Calm 29.76 1008 10 16 N/A
3:45 pm 15:45 Cloudy 41 5 41 5 100 100 E 6 9 29.73 1007 10 16 N/A
4:45 pm 16:45 Cloudy with Light Rain 41 5 39 4 93 93 Calm 29.74 1007 5 8 N/A
5:55 pm 17:55 Cloudy with Light Rain 39 4 39 4 100 100 Calm 29.77 1008 4 6 N/A
6:45 pm 18:45 Cloudy with Light Rain 43 6 41 5 93 93 WSW 12 19 29.80 1009 7 11 N/A
7:45 pm 19:45 Cloudy with Light Rain 45 7 41 5 87 87 SW 14 22 29.80 1009 10 16 N/A
8:45 pm 20:45 Cloudy 45 7 41 5 87 87 WSW 13 20 29.80 1009 10 16 N/A
9:50 pm 21:50 Cloudy 45 7 39 4 81 81 WSW 15 24 29.84 1010 7 11 N/A

Powered by AerisWeather